カタログに戻る

USA 202

運用中軍事GEO
NORAD 33490·PAYLOAD·🇺🇸 United States

打ち上げ Jan 18, 2009 から Cape Canaveral Space Force Station

Loading…

TLE

最新Source: Mike McCants

元期: Sep 14, 2026, 23:38 UTC

1 33490U 09001A   26257.98473222  .00000000  00000-0  00000-0 0    01
2 33490   8.9745  32.4365 0006686 257.3422 102.5905  1.00270000  2642

AllMySatでUSA 202をリアルタイム追跡

Download on the App Store